Location: Feigenhofen
(48.4939°N, 10.7793°E)
Time: 15:22:38
(UTC+00:00)

SME Rocket - Pass Details

Date: 26 May 2022
Orbit: 550 x 2650 km, 99.9° (Epoch: 28 June)

Event Time Altitude Azimuth Distance (km) Brightness Sun altitude
Exits shadow 01:24:34 23° 227° (SW) 1,306 4.1 -14.5°
Maximum altitude 01:26:09 31° 266° (W) 1,159 4.1 -14.4°
Drops below altitude 10° 01:30:34 10° 328° (NNW) 2,404 6.4 -14.0°
Sets 01:33:36 0° 339° (NNW) 3,620 7.5 -13.7°
